Zurück zum Katalog

GORIZONT 27

AktivKommunikationGEO
NORAD 22245·PAYLOAD·🇷🇺 Russia

Gestartet Nov 27, 1992 von Baikonur Cosmodrome

Loading…

TLE

AktuellSource: Space-Track

Epoche: Sep 14, 2026, 00:00 UTC

1 22245U 92082A   26257.00068975 -.00000204  00000-0  00000-0 0  9990
2 22245  13.6626 343.3197 0011444  31.2134 316.9539  1.00211113128006

Verfolge GORIZONT 27 in Echtzeit mit AllMySat

Download on the App Store